Regional Weather Roundup
Issued by NWS

Home | Current Version | Previous Version | Graphics & Text | Print | Product List | Glossary On
Versions: 1 2 3 4 5 6 7 8 9 10 11 12 13 14 15 16 17 18 19 20 21 22 23 24 25 26 27 28
000
ASUS45 KBOU 221407
RWRCO

WEATHER ROUNDUP FOR COLORADO
NATIONAL WEATHER SERVICE DENVER/BOULDER CO
800 AM MDT WED MAR 22 2017

NOTE: "FAIR" INDICATES FEW OR NO CLOUDS BELOW 12000 FEET WITH NO
SIGNIFICANT WEATHER AND/OR OBSTRUCTIONS TO VISIBILITY.

COZ001>005-013-030-031-221500-
...NORTHWEST COLORADO...

CITY           SKY/WX    TMP DP  RH WIND       PRES   REMARKS
CRAIG          MOCLDY    41  33  73 CALM      29.99F
HAYDEN         FAIR      46  27  46 SE10      30.01S
MEEKER         MOCLDY    46  31  55 E3        30.00S
MOUNT WERNER   NOT AVBL
STEAMBOAT SPGS MOCLDY    40  31  70 N3        30.03F
WALDEN         NOT AVBL
$$

COZ006>008-011-221500-
...WEST CENTRAL VALLEYS...

CITY           SKY/WX    TMP DP  RH WIND       PRES   REMARKS
GRAND JUNCTION FAIR      58  30  34 CALM      29.95S
MONTROSE       FAIR      61  19  19 VRB3      30.04R
EAGLE          CLEAR     37  30  75 CALM      30.10R
RIFLE          FAIR      46  33  60 CALM      30.00S
DELTA          FAIR      54  30  40 E6        30.02R
NUCLA          FAIR      50  27  40 E12       30.09S
$$

COZ017>023-064>068-221500-
...SOUTHWEST COLORADO...

CITY           SKY/WX    TMP DP  RH WIND       PRES   REMARKS
DURANGO        FAIR      36  29  75 NE5       30.16R
CORTEZ         FAIR      38  31  76 VRB3      30.08S
PAGOSA SPRINGS FAIR      41  28  60 CALM      30.21S
TELLURIDE      FAIR      48  18  30 E5        30.22S
WOLF CREEK PAS CLOUDY    32  19  59 S15G23    30.39R WCI  22
$$

COZ009-010-012-014-032>034-037-058>063-221500-
...CENTRAL COLORADO...

CITY           SKY/WX    TMP DP  RH WIND       PRES   REMARKS
ASPEN          FAIR      45  25  45 S5        30.10R
BUENA VISTA    FAIR      35  29  79 N5        30.17S WCI  31
COPPER MTN     FAIR      37  19  48 S13       30.29F
BERTHOUD PASS  FAIR      30  19  64 W16G26    30.30S WCI  19
COTTONWOOD PAS MOCLDY    41  28  60 CALM      30.22S
GUNNISON       FAIR      32  30  92 CALM      30.19S
KREMMLING      FAIR      39  32  75 CALM      30.12S
LEADVILLE      FAIR      29  21  72 CALM      30.20F
MONARCH PASS   MOCLDY    32  21  64 SW20      30.41S WCI  20
SALIDA         FAIR      40  31  71 N8        30.23F
SUNLIGHT       NOT AVBL
WILKERSON PASS FAIR      34  23  64 SW12G24   30.28S WCI  25
$$

COZ069>075-221500-
...SAN LUIS VALLEY/SANGRE DE CRISTO MOUNTAINS...

CITY           SKY/WX    TMP DP  RH WIND       PRES   REMARKS
ALAMOSA        FAIR      32  24  72 CALM      30.18F
LA VETA PASS   NOT AVBL
SAGUACHE       FAIR      36  27  69 N6        30.21R
$$

COZ035-036-038>040-221500-
...NORTHERN COLORADO FRONT RANGE...

CITY           SKY/WX    TMP DP  RH WIND       PRES   REMARKS
DENVER INTL AP PTSUNNY   38  32  79 NW9       30.03F
DMNS CITY PARK   N/A     41  33  73 NE3       30.04S
AURORA         MOSUNNY   38  33  81 W5        30.04S
FRONT RANGE AP PTSUNNY   39  30  70 SW3       30.04S
ERIE MUNI ARPT FAIR      34  32  93 CALM      30.05S
BOULDER MUN AP FAIR      36  32  87 CALM      30.04S
CENTENNIAL     PTSUNNY   40  31  70 S5        30.03F
BROOMFIELD     PTSUNNY   37  32  81 CALM      30.05S
FORT COLLINS   FAIR      34  29  82 N8        30.05R WCI  27
LONGMONT       FAIR      39  32  75 N7        30.06S
$$

COZ041-046-047-076>085-087-088-221500-
...PIKES PEAK/PALMER DIVIDE AND SOUTHERN FOOTHILLS...

CITY           SKY/WX    TMP DP  RH WIND       PRES   REMARKS
COLO. SPRINGS  CLOUDY    35  28  75 SE5       30.14F WCI  31
A. F. ACADEMY  CLOUDY    35  30  84 SE3       30.12F
SCHRIEVER AFB  CLOUDY    34  29  81 NW5       30.14F WCI  30
ELLICOTT       CLOUDY   N/A N/A N/A SE5       30.13F
FALCON         CLOUDY    33  31  94 S5        30.13F WCI  28
FORT CARSON    CLOUDY    36  28  72 CALM      30.13F
LIMON          CLOUDY    36  27  69 S17       30.13F
MONUMENT HILL  FAIR      32  30  93 S15       30.10S WCI  22
TRINIDAD       FAIR      37  31  78 NW6       30.13S
$$

COZ042>045-048>051-090-091-221500-
...NORTHEAST COLORADO...

CITY           SKY/WX    TMP DP  RH WIND       PRES   REMARKS
GREELEY ARPT   FAIR      36  29  75 NE5       30.05S
AKRON          FAIR      35  25  66 SE18      30.09F WCI  24
BURLINGTON     CLOUDY    39  32  76 S22G28    30.16F
WRAY           NOT AVBL
STERLING       FAIR      37  32  81 S14       30.09F
HOLYOKE        PTSUNNY   37  32  81 SE14      30.16F
FORT MORGAN    FAIR      36  25  63 SE12      30.07F
$$

COZ086-089-092>099-221500-
...SOUTHEAST COLORADO...

CITY           SKY/WX    TMP DP  RH WIND       PRES   REMARKS
PUEBLO         FAIR      34  27  75 N6        30.14F WCI  29
LA JUNTA       FAIR      42  33  70 S7        30.14S
LAMAR          CLOUDY    46  32  58 S15G21    30.16S
SPRINGFIELD      N/A     41  35  79 S17       30.18S
$$




USA.gov is the U.S. government's official web portal to all federal, state and local government web resources and services.